Change the Weather History Date:

Monday, May 27, 2013

  Actual Average Record
Temperature  
Mean Temperature 62 °F -  
Max Temperature 68 °F 77 °F 91 °F (1980)
Min Temperature 55 °F 53 °F 34 °F (1971)
Degree Days  
Heating Degree Days 4    
Growing Degree Days 12 (Base 50)    
Moisture  
Dew Point 56 °F    
Average Humidity 83    
Maximum Humidity 94    
Minimum Humidity 68    
Precipitation  
Precipitation 1.40 in - - ()
Sea Level Pressure  
Sea Level Pressure 29.80 in    
Wind  
Wind Speed 12 mph (ENE)    
Max Wind Speed 24 mph    
Max Gust Speed 32 mph    
Visibility 10 miles    
Events Rain    
Averages and records for this station are not official NWS values.
T = Trace of Precipitation, MM = Missing Value Source: NWS Daily Summary

Daily Weather History Graph

Daily Weather History Graph

Search for Another Location

Airport or City:

Trip Planner

Search our weather history database for the weather conditions in past years. The results will help you decide how hot, cold, wet, or windy it might be!

Date:

Astronomy

May. 27, 2013 Rise Set
Actual Time 5:51 AM CDT 8:52 PM CDT
Civil Twilight 5:18 AM CDT 9:26 PM CDT
Nautical Twilight 4:34 AM CDT 10:09 PM CDT
Astronomical Twilight 3:44 AM CDT 11:00 PM CDT
Moon 11:30 PM CDT (5/27) 8:31 AM CDT (5/27)
Length of Visible Light 16h 08m
Length of Day
15h 00m
Waning Gibbous, 91% of the Moon is Illuminated
May 27
Waning Gibbous
May 31
Last Quarter
Jun 8
New
Jun 16
First Quarter
Jun 23
Full

Hourly Weather History & Observations

Time (CDT) Temp. Dew Point Humidity Pressure Visibility Wind Dir Wind Speed Gust Speed Precip Events Conditions
12:15 AM 57.2 °F 53.6 °F 88% 29.86 in 10.0 mi ESE 24.2 mph 27.6 mph N/A   Overcast
12:35 AM 57.2 °F 53.6 °F 88% 29.83 in 10.0 mi ESE 23.0 mph 32.2 mph N/A Rain Light Rain
12:55 AM 57.2 °F 53.6 °F 88% 29.83 in 5.0 mi ESE 21.9 mph 31.1 mph 0.08 in Rain Rain
1:15 AM 57.2 °F 55.4 °F 94% 29.84 in 10.0 mi SE 17.3 mph 26.5 mph 0.02 in Rain Light Rain
1:35 AM 59.0 °F 55.4 °F 88% 29.83 in 7.0 mi SE 13.8 mph 29.9 mph 0.07 in Rain Light Rain
1:55 AM 59.0 °F 55.4 °F 88% 29.84 in 10.0 mi SE 11.5 mph 21.9 mph 0.08 in Rain Light Rain
2:15 AM 57.2 °F 55.4 °F 94% 29.92 in 0.8 mi NW 10.4 mph 24.2 mph 0.59 in Rain Heavy Rain
2:35 AM 57.2 °F 55.4 °F 94% 29.91 in 10.0 mi ENE 5.8 mph - 0.74 in Rain Rain
2:55 AM 57.2 °F 55.4 °F 94% 29.91 in 10.0 mi East 4.6 mph - 0.78 in Rain Rain
3:15 AM 57.2 °F 55.4 °F 94% 29.90 in 10.0 mi ESE 9.2 mph - 0.07 in Rain Heavy Rain
3:35 AM 57.2 °F 55.4 °F 94% 29.90 in 3.0 mi ESE 9.2 mph - 0.16 in Rain Rain
3:55 AM 57.2 °F 55.4 °F 94% 29.89 in 10.0 mi East 4.6 mph - 0.25 in Rain Rain
4:15 AM 57.2 °F 55.4 °F 94% 29.90 in 10.0 mi Calm Calm - 0.06 in Rain Rain
4:35 AM 57.2 °F 55.4 °F 94% 29.89 in 10.0 mi NNE 8.1 mph - 0.13 in Rain Rain
4:55 AM 57.2 °F 55.4 °F 94% 29.82 in 10.0 mi NNE 18.4 mph 24.2 mph 0.17 in Rain Rain
5:15 AM 55.4 °F 53.6 °F 94% 29.82 in 10.0 mi NE 15.0 mph 19.6 mph 0.03 in Rain Light Rain
5:35 AM 55.4 °F 53.6 °F 94% 29.85 in 10.0 mi NNE 19.6 mph 24.2 mph 0.03 in   Scattered Clouds
5:55 AM 57.2 °F 53.6 °F 88% 29.80 in 10.0 mi NE 10.4 mph - 0.04 in Rain Light Rain
6:15 AM 57.2 °F 55.4 °F 94% 29.79 in 10.0 mi NE 10.4 mph - N/A   Scattered Clouds
6:35 AM 57.2 °F 55.4 °F 94% 29.80 in 10.0 mi NE 9.2 mph - N/A   Clear
6:55 AM 59.0 °F 55.4 °F 88% 29.76 in 10.0 mi East 6.9 mph - N/A   Clear
7:15 AM 59.0 °F 55.4 °F 88% 29.74 in 10.0 mi East 9.2 mph - N/A   Clear
7:35 AM 60.8 °F 55.4 °F 82% 29.74 in 10.0 mi East 5.8 mph 16.1 mph N/A   Clear
7:55 AM 60.8 °F 55.4 °F 82% 29.81 in 10.0 mi ESE 8.1 mph - N/A   Clear
8:15 AM 60.8 °F 55.4 °F 82% 29.84 in 10.0 mi SSE 3.5 mph - N/A   Scattered Clouds
8:35 AM 60.8 °F 55.4 °F 82% 29.87 in 10.0 mi SSE 6.9 mph - N/A   Mostly Cloudy
8:55 AM 60.8 °F 55.4 °F 82% 29.84 in 10.0 mi ESE 8.1 mph - N/A   Overcast
9:15 AM 59.0 °F 55.4 °F 88% 29.84 in 10.0 mi East 5.8 mph - N/A   Overcast
9:35 AM 60.8 °F 55.4 °F 82% 29.84 in 10.0 mi East 4.6 mph - N/A   Overcast
9:55 AM 60.8 °F 55.4 °F 82% 29.81 in 10.0 mi East 5.8 mph - N/A   Overcast
10:15 AM 62.6 °F 55.4 °F 77% 29.80 in 10.0 mi ESE 4.6 mph - N/A   Overcast
10:35 AM 62.6 °F 57.2 °F 82% 29.79 in 10.0 mi East 9.2 mph - N/A   Overcast
10:55 AM 62.6 °F 57.2 °F 82% 29.78 in 10.0 mi ENE 12.7 mph - N/A   Overcast
11:15 AM 62.6 °F 57.2 °F 82% 29.77 in 10.0 mi East 12.7 mph 17.3 mph N/A   Mostly Cloudy
11:35 AM 64.4 °F 57.2 °F 77% 29.79 in 10.0 mi East 10.4 mph 16.1 mph N/A   Mostly Cloudy
11:55 AM 64.4 °F 57.2 °F 77% 29.81 in 10.0 mi East 8.1 mph 16.1 mph N/A   Overcast
12:15 PM 64.4 °F 57.2 °F 77% 29.80 in 10.0 mi East 10.4 mph - N/A   Overcast
12:35 PM 64.4 °F 57.2 °F 77% 29.81 in 10.0 mi East 8.1 mph - N/A   Mostly Cloudy
12:55 PM 64.4 °F 55.4 °F 73% 29.82 in 10.0 mi ENE 6.9 mph - N/A   Overcast
1:15 PM 64.4 °F 57.2 °F 77% 29.82 in 10.0 mi ENE 4.6 mph - N/A   Overcast
1:35 PM 66.2 °F 57.2 °F 73% 29.81 in 10.0 mi ENE 4.6 mph - N/A   Overcast
1:55 PM 66.2 °F 57.2 °F 73% 29.81 in 10.0 mi North 4.6 mph - N/A   Overcast
2:15 PM 66.2 °F 57.2 °F 73% 29.80 in 10.0 mi NNE 8.1 mph - N/A   Mostly Cloudy
2:35 PM 66.2 °F 57.2 °F 73% 29.80 in 10.0 mi North 5.8 mph - N/A   Mostly Cloudy
2:55 PM 66.2 °F 57.2 °F 73% 29.80 in 10.0 mi NNE 4.6 mph - N/A   Overcast
3:15 PM 66.2 °F 55.4 °F 68% 29.79 in 10.0 mi NNE 4.6 mph - N/A   Mostly Cloudy
3:35 PM 68.0 °F 57.2 °F 68% 29.78 in 10.0 mi NNE 5.8 mph - N/A   Mostly Cloudy
3:55 PM 66.2 °F 57.2 °F 73% 29.78 in 10.0 mi NNE 6.9 mph - N/A   Overcast
4:15 PM 66.2 °F 57.2 °F 73% 29.78 in 10.0 mi NE 8.1 mph - N/A   Overcast
4:35 PM 66.2 °F 57.2 °F 73% 29.77 in 10.0 mi ENE 10.4 mph - N/A   Overcast
4:55 PM 66.2 °F 59.0 °F 78% 29.76 in 10.0 mi NNE 10.4 mph - N/A   Mostly Cloudy
5:15 PM 66.2 °F 57.2 °F 73% 29.77 in 10.0 mi NE 10.4 mph - N/A   Scattered Clouds
5:35 PM 66.2 °F 57.2 °F 73% 29.76 in 10.0 mi NE 10.4 mph - N/A   Clear
5:55 PM 64.4 °F 57.2 °F 77% 29.75 in 10.0 mi NE 12.7 mph - N/A   Mostly Cloudy
6:15 PM 64.4 °F 57.2 °F 77% 29.74 in 10.0 mi NNE 11.5 mph - N/A   Scattered Clouds
6:35 PM 64.4 °F 57.2 °F 77% 29.74 in 10.0 mi ENE 12.7 mph 19.6 mph N/A   Mostly Cloudy
6:55 PM 62.6 °F 55.4 °F 77% 29.75 in 10.0 mi ENE 9.2 mph - N/A   Overcast
7:15 PM 62.6 °F 55.4 °F 77% 29.74 in 10.0 mi ENE 12.7 mph - N/A   Overcast
7:35 PM 62.6 °F 55.4 °F 77% 29.76 in 10.0 mi ENE 9.2 mph - N/A   Overcast
7:55 PM 62.6 °F 55.4 °F 77% 29.77 in 10.0 mi ENE 8.1 mph - N/A   Overcast
8:15 PM 60.8 °F 55.4 °F 82% 29.76 in 10.0 mi East 9.2 mph - N/A   Overcast
8:35 PM 60.8 °F 55.4 °F 82% 29.75 in 10.0 mi East 11.5 mph - N/A   Overcast
8:55 PM 60.8 °F 55.4 °F 82% 29.74 in 10.0 mi East 9.2 mph - N/A   Overcast
9:15 PM 60.8 °F 55.4 °F 82% 29.74 in 10.0 mi East 10.4 mph - N/A   Overcast
9:35 PM 60.8 °F 55.4 °F 82% 29.75 in 10.0 mi ENE 11.5 mph - N/A   Overcast
9:55 PM 60.8 °F 53.6 °F 77% 29.77 in 10.0 mi East 9.2 mph - N/A   Overcast
10:15 PM 60.8 °F 55.4 °F 82% 29.75 in 10.0 mi East 10.4 mph - N/A   Overcast
10:35 PM 60.8 °F 55.4 °F 82% 29.76 in 10.0 mi East 9.2 mph - N/A   Overcast
10:55 PM 60.8 °F 55.4 °F 82% 29.75 in 10.0 mi Calm Calm - N/A   Overcast
11:15 PM 59.0 °F 55.4 °F 88% 29.73 in 10.0 mi ENE 8.1 mph - N/A   Mostly Cloudy
11:35 PM 59.0 °F 55.4 °F 88% 29.73 in 10.0 mi NE 8.1 mph - N/A   Scattered Clouds
11:55 PM 57.2 °F 55.4 °F 94% 29.72 in 10.0 mi ENE 8.1 mph - N/A   Mostly Cloudy